This is the latest recevied weather packets stored in our database for station/object T10BNorth. If no packets are shown the sender has not sent any weather packets the latest 10 day(s).
| Time | Temp. | Humidity | Pressure | Rain* | Wind** | Luminosity | Snow |
|---|---|---|---|---|---|---|---|
| 1778177556 | 10.56° C | 51% | 1004.6 hPa | 0 mm | - | 306 W/m² | - |
| 1778177497 | 10.56° C | 52% | 1004.6 hPa | 0 mm | - | 306 W/m² | - |
| 1778177438 | 10.56° C | 51% | 1004.6 hPa | 0 mm | - | 306 W/m² | - |
| 1778177378 | 10.56° C | 50% | 1004.6 hPa | 0 mm | - | 287 W/m² | - |
| 1778177316 | 10.56° C | 49% | 1004.6 hPa | 0 mm | - | 283 W/m² | - |
| 1778177258 | 10.56° C | 50% | 1004.6 hPa | 0 mm | - | 279 W/m² | - |
| 1778177196 | 10.56° C | 54% | 1004.6 hPa | 0 mm | - | 283 W/m² | - |
| 1778177131 | 10.56° C | 51% | 1004.6 hPa | 0 mm | - | 283 W/m² | - |
| 1778177070 | 10.56° C | 52% | 1004.5 hPa | 0 mm | - | 292 W/m² | - |
| 1778177011 | 10.56° C | 54% | 1004.6 hPa | 0 mm | - | 299 W/m² | - |
| 1778176951 | 10.56° C | 54% | 1004.6 hPa | 0 mm | - | 301 W/m² | - |
| 1778176890 | 10.56° C | 53% | 1004.6 hPa | 0 mm | - | 294 W/m² | - |
| 1778176827 | 10.56° C | 49% | 1004.6 hPa | 0 mm | - | 292 W/m² | - |
| 1778176767 | 10.56° C | 49% | 1004.6 hPa | 0 mm | - | 292 W/m² | - |
| 1778176706 | 10.56° C | 49% | 1004.6 hPa | 0 mm | - | 299 W/m² | - |
| 1778176648 | 11.11° C | 52% | 1004.6 hPa | 0 mm | - | 297 W/m² | - |
| 1778176586 | 11.11° C | 50% | 1004.6 hPa | 0 mm | - | 285 W/m² | - |
| 1778176526 | 11.11° C | 50% | 1004.6 hPa | 0 mm | - | 264 W/m² | - |
| 1778176466 | 11.11° C | 51% | 1004.6 hPa | 0 mm | - | 262 W/m² | - |
| 1778176406 | 11.11° C | 48% | 1004.6 hPa | 0 mm | - | 332 W/m² | - |
| 1778176360 | 11.11° C | 47% | 1004.5 hPa | 0 mm | - | 332 W/m² | - |
| 1778176338 | 11.11° C | 51% | 1004.6 hPa | 0 mm | - | 332 W/m² | - |
| 1778176226 | 11.11° C | 48% | 1004.6 hPa | 0 mm | - | 332 W/m² | - |
| 1778176168 | 11.67° C | 49% | 1004.6 hPa | 0 mm | - | 332 W/m² | - |
| 1778176100 | 11.67° C | 49% | 1004.4 hPa | 0 mm | - | 332 W/m² | - |
* Rain latest hour (hover to see other rain measurements)
** Current wind speed in m/s (hover to see current wind gust speed)